Regional Weather Roundup
Issued by NWS

Home | Current Version | Previous Version | Graphics & Text | Print | Product List | Glossary On
Versions: 1 2 3 4 5 6 7 8 9 10 11 12 13 14 15 16 17 18 19 20 21 22 23 24 25 26 27 28 29 30 31 32 33 34 35 36 37 38 39 40 41 42 43 44 45 46 47 48 49 50
000
ASUS43 KDMX 170406
RWRIA

WEATHER ROUNDUP FOR IOWA
NATIONAL WEATHER SERVICE DES MOINES IA
1000 PM CST SAT DEC 16 2017

NOTE: "FAIR" INDICATES FEW OR NO CLOUDS BELOW 12,000 FEET WITH NO
SIGNIFICANT WEATHER AND/OR OBSTRUCTIONS TO VISIBILITY.

* - THESE STATIONS ARE NOT NWS STATIONS...THUS NOT UNDER NWS
QUALITY CONTROL.  THEY ALSO DO NOT REPORT WEATHER SUCH
AS PRECIPITATION OR FOG.

IAZ001>003-012>014-020>022-031>034-043>046-170500-
   NORTHWEST IOWA

CITY           SKY/WX    TMP DP  RH WIND       PRES   REMARKS
CARROLL *      PTCLDY    30  25  80 N7        30.00R WCI  23
CHEROKEE *     CLOUDY    32  29  89 NE6       30.02S WCI  26
LE MARS *      MOCLDY    32  28  86 NE8       30.02S WCI  25
ORANGE CITY *  PTCLDY    32  28  86 NE5       30.02F WCI  27
SHELDON *      PTCLDY    25  25 100 NE6       30.01F WCI  18
SIOUX CITY     PTCLDY    35  29  78 NE9       30.02R WCI  28
SPENCER        PTCLDY    27  24  89 NE9       30.03F WCI  18
STORM LAKE *   MIX PCPN  30  28  93 NE18      30.00S WCI  18
$$

IAZ055>058-069>071-079>083-090>094-170500-
   SOUTHWEST IOWA

CITY           SKY/WX    TMP DP  RH WIND       PRES   REMARKS
ATLANTIC *     CLOUDY    34  27  75 N5        29.97R WCI  30
AUDUBON *      CLOUDY    32  27  80 CALM      29.99S
CLARINDA *       N/A     27  23  86 CALM        N/A
COUNCIL BLFS * PTCLDY    36  28  75 NE12      29.96R WCI  27
CRESTON *      CLOUDY    36  23  60 NE6       29.97R WCI  31
HARLAN  *      CLOUDY    32  27  80 N9        30.00S WCI  24
LAMONI         PTCLDY    40  26  57 CALM      29.96R
RED OAK *      CLOUDY    32  23  69 N6        29.96R WCI  26
SHENANDOAH *   CLOUDY    30  23  74 N3        29.95R
$$

IAZ047>049-059>061-072>074-084-170500-
   CENTRAL IOWA

CITY           SKY/WX    TMP DP  RH WIND       PRES   REMARKS
AMES           CLOUDY    31  26  82 NW5       29.99R WCI  26
ANKENY *       CLOUDY    30  25  80 N5        29.99R WCI  25
BOONE *        CLOUDY    32  27  80 N8        29.97R WCI  25
CHARITON *     CLOUDY    37  25  60 CALM      29.95S
DES MOINES     CLOUDY    38  27  64 NE8       29.96F WCI  32
GRINNELL*      CLOUDY    32  24  72 CALM      29.98S
KNOXVILLE *    MOCLDY    36  25  64 NE6       29.93F WCI  31
MARSHALLTOWN   CLOUDY    30  24  78 NE8       29.98S WCI  22
NEWTON *       CLOUDY    34  23  64 NE6       29.97S WCI  29
PELLA *        CLOUDY    33  26  73 CALM      29.96F
PERRY *          N/A     32  24  73 N7        29.98S WCI  26
$$

IAZ004>006-015-016-023>025-035-036-170500-
   NORTH CENTRAL IOWA

CITY           SKY/WX    TMP DP  RH WIND       PRES   REMARKS
ALGONA *       MOCLDY    28  28 100 N12       30.03S WCI  18
CLARION *      CLOUDY    30  28  93 NE10      30.01S WCI  21
ESTHERVILLE    MOCLDY    25  25 100 NE10      30.04S FOG     WCI  15
FORT DODGE *   PTCLDY    31  27  85 N8        30.00F WCI  23
MASON CITY     PTCLDY    25  22  88 NE10      30.04S WCI  15
FOREST CITY *    N/A     30  28  93 NE9       30.03F WCI  22
WEBSTER CITY * PTCLDY    30  25  80 NE7       29.97F WCI  23
IOWA FALLS *     N/A     31  26  80 NE7       30.01S WCI  24
$$

IAZ007>011-017>019-026>030-037>042-050>054-066-170500-
   NORTHEAST IOWA

CITY           SKY/WX    TMP DP  RH WIND       PRES   REMARKS
CEDAR RAPIDS   CLOUDY    33  24  69 E5        29.99S WCI  29
CHARLES CITY * MOCLDY    28  27  93 NE13      30.03S WCI  18
CLINTON *      CLOUDY    27  23  85 E9        30.04R WCI  18
DECORAH *      MOCLDY    27  25  93 E7        30.05S WCI  19
DUBUQUE        CLEAR     29  26  89 NE12      30.04R WCI  19
MONTICELLO *   MIX PCPN  32  25  74 NE9       30.01F WCI  24
OELWEIN *      CLOUDY    30  28  93 NE10      30.02F FOG     WCI  21
WATERLOO       PTCLDY    28  22  78 NE6       30.01F WCI  22
$$

IAZ064-065-067-068-078-170500-
   EAST CENTRAL IOWA

CITY           SKY/WX    TMP DP  RH WIND       PRES   REMARKS
DAVENPORT      CLOUDY    32  23  69 E8        30.04S WCI  25
IOWA CITY      CLOUDY    27  20  75 CALM      30.01F
MT. PLEASANT * CLOUDY    32  22  67 E6        29.98F WCI  26
MUSCATINE *    CLOUDY    28  21  74 CALM      30.00F
QUAD CITIES    CLOUDY    27  21  78 NE3       30.01S
$$

IAZ062-063-075>077-085>089-095>099-170500-
   SOUTHEAST IOWA

CITY           SKY/WX    TMP DP  RH WIND       PRES   REMARKS
BURLINGTON     CLOUDY    36  27  69 NE5       29.98F WCI  32
FAIRFIELD *    CLOUDY    32  23  69 NE8       29.96F WCI  25
FORT MADISON * CLOUDY    37  27  65 CALM      29.99S
KEOKUK *       CLOUDY    41  27  56 CALM      29.98S
OSKALOOSA *      N/A     34  24  66 CALM      29.96F
OTTUMWA        PTCLDY    32  24  72 E5        29.96F WCI  27
WASHINGTON *   PTCLDY    30  25  80 NE6       29.99F WCI  24
$$

ABBREVIATIONS USED IN REMARKS
   TC - TEMPERATURES IN CELSIUS
  WCI - WIND CHILL INDEX
   HX - HEAT INDEX
  VSB - VISIBILITY
$$





USA.gov is the U.S. government's official web portal to all federal, state and local government web resources and services.